Flag for Norway Weather past 2 weeks in Hamar, Norway

Now
53 °F

Cool.


Feels Like: 53 °F
Forecast: 58 / 76 °F
Wind: No wind

Location: Lillehammer-Saetherengen

Current Time: Aug 1, 2014 at 5:50:25 AM

Latest Report: Aug 1, 2014 at 5:00 AM


Visibility: N/A

Pressure: 29.68 "Hg

Humidity: 86%

Dew point: 48 °F

Location of HamarLocation

Historic Weather in Hamar — Graph

°F

Hamar temperature yesterday

Maximum temperature yesterday: 71 °F (at 6:00 PM)
Minimum temperature yesterday: 56 °F (at 11:00 PM)
Average temperature yesterday: 67 °F

Past Weeks' High & Low Weather Summary

 TemperatureHumidityPressure
High88 °F (Jul 23, 5:00 PM)93% (Jul 28, 6:00 AM)30.34 "Hg (Jul 28, 6:00 AM)
Low53 °F (Aug 1, 2:00 AM)30% (Jul 23, 5:00 PM)29.54 "Hg (Jul 30, 3:00 PM)
Average68 °F65%30.03 "Hg
* Reported Jul 17 4:00 AM — Aug 1 4:00 AM, Hamar, Weather by CustomWeather, © 2014

Note: Actual official high and low records may vary slightly from our data, if they occured in-between our weather recording intervals... More about our weather records

Advertising

Hamar weather history for previous 24 hours

 ConditionsComfort  
Time TempWeatherWind HumidityBarometerVisibility
4:00 AM
Aug 1
53 °FCool.No wind84%29.67 "HgN/A
3:00 AM54 °FCool.No wind81%29.67 "HgN/A
2:00 AM53 °FCool.2 mph81%29.67 "HgN/A
1:00 AM53 °FCool.1 mph82%29.67 "HgN/A
12:00 AM55 °FCool.1 mph75%29.65 "HgN/A
11:00 PM
Jul 31
56 °FCool.1 mph73%29.64 "HgN/A
10:00 PM60 °FCool.1 mph67%29.62 "HgN/A
9:00 PM64 °FMild.1 mph61%29.61 "HgN/A
8:00 PM67 °FMild.2 mph49%29.59 "HgN/A
7:00 PM70 °FMild.2 mph40%29.58 "HgN/A
6:00 PM71 °FMild.2 mph39%29.57 "HgN/A
5:00 PM69 °FMild.2 mph41%29.58 "HgN/A
4:00 PM69 °FMild.3 mph42%29.57 "HgN/A
3:00 PM70 °FMild.2 mph37%29.57 "HgN/A
2:00 PM69 °FMild.2 mph43%29.56 "HgN/A
1:00 PM67 °FMild.3 mph45%29.57 "HgN/A
Weather by CustomWeather, © 2014

See weather overviewHow to use our weather pages